GW0408 Weather Reports


Display with metric or nautical units.
time (UTC)temp
F
wind
direction
speed
MPH
gust
MPH
rain 1hr
in
rain 24hr
in
rain mn
in
humidity
%
barometer
mb
20260505083011 61 132 2.0 4.0 0.00 0.00 0.00 78 1011.9
20260505082511 61 147 1.0 4.0 0.00 0.00 0.00 78 1011.9
20260505082011 62 284 1.0 4.0 0.00 0.00 0.00 78 1012.0
20260505081732 62 150 2.0 7.0 0.00 0.00 0.00 78 1012.0
20260505081009 62 117 1.0 7.0 0.00 0.00 0.00 77 1011.9
20260505080509 62 0 1.0 4.0 0.00 0.00 0.00 77 1011.9
20260505080010 62 0 1.0 6.0 0.00 0.00 0.00 77 1011.8
20260505075510 62 156 1.0 6.0 0.00 0.00 0.00 77 1011.8
20260505075010 62 149 1.0 3.0 0.00 0.00 0.00 77 1011.8
20260505074511 62 221 1.0 3.0 0.00 0.00 0.00 77 1011.8
20260505074011 62 243 1.0 3.0 0.00 0.00 0.00 77 1011.7
20260505073512 62 0 0.0 3.0 0.00 0.00 0.00 77 1011.6
20260505072959 62 0 1.0 4.0 0.00 0.00 0.00 77 1011.6
20260505072458 62 261 1.0 4.0 0.00 0.00 0.00 77 1011.6
20260505071959 62 287 1.0 3.0 0.00 0.00 0.00 77 1011.5
20260505071459 62 0 1.0 3.0 0.00 0.00 0.00 76 1011.5
20260505070959 62 0 1.0 3.0 0.00 0.00 0.00 76 1011.5
20260505070500 62 290 1.0 3.0 0.00 0.00 0.00 76 1011.5
20260505070000 63 0 1.0 4.0 0.00 0.00 0.00 76 1011.5
20260505065458 63 161 1.0 4.0 0.00 0.00 0.00 75 1011.4
20260505064942 63 164 1.0 5.0 0.00 0.00 0.00 75 1011.4
20260505064430 63 0 1.0 5.0 0.00 0.00 0.00 75 1011.5
20260505063928 63 177 1.0 4.0 0.00 0.00 0.00 75 1011.5
20260505063429 63 0 1.0 4.0 0.00 0.00 0.00 75 1011.5
20260505062912 63 164 2.0 4.0 0.00 0.00 0.00 75 1011.5
20260505062641 64 204 2.0 4.0 0.00 0.00 0.00 75 1011.5
20260505061913 64 0 2.0 4.0 0.00 0.00 0.00 74 1011.5
20260505061633 64 167 1.0 4.0 0.00 0.00 0.00 74 1011.5
20260505060913 64 0 1.0 3.0 0.00 0.00 0.00 75 1011.5
20260505060412 64 270 0.0 3.0 0.00 0.00 0.00 74 1011.5
20260505055911 64 316 0.0 2.0 0.00 0.00 0.00 74 1011.5
20260505055638 64 0 1.0 6.0 0.00 0.00 0.00 74 1011.5
20260505055121 64 161 2.0 6.0 0.00 0.00 0.00 73 1011.5
20260505054400 64 192 2.0 5.0 0.00 0.00 0.00 73 1011.5
20260505053859 64 212 2.0 5.0 0.00 0.00 0.00 73 1011.6
20260505053401 64 0 2.0 4.0 0.00 0.00 0.00 73 1011.5
20260505052845 65 189 2.0 4.0 0.00 0.00 0.00 73 1011.5
20260505052344 65 154 1.0 4.0 0.00 0.00 0.00 73 1011.5
20260505051845 65 180 1.0 3.0 0.00 0.00 0.00 73 1011.5
20260505051344 65 181 2.0 5.0 0.00 0.00 0.00 73 1011.5
20260505050832 65 223 2.0 5.0 0.00 0.00 0.00 73 1011.4
20260505050329 65 258 2.0 5.0 0.00 0.00 0.00 72 1011.4
20260505041548 66 101 2.0 6.0 0.00 0.00 0.00 72 1011.4
20260505040816 66 180 2.0 4.0 0.00 0.00 0.00 71 1011.3
20260505040317 66 236 2.0 5.0 0.00 0.00 0.00 72 1011.3
20260505035814 66 182 1.0 5.0 0.00 0.00 0.00 71 1011.1
20260505035313 66 0 2.0 5.0 0.00 0.00 0.00 71 1011.1
20260505035043 65 224 2.0 5.0 0.00 0.00 0.00 71 1011.1
20260505034314 65 178 1.0 5.0 0.00 0.00 0.00 72 1011.1
20260505034031 65 294 1.0 5.0 0.00 0.00 0.00 72 1011.1
20260505033314 66 0 1.0 3.0 0.00 0.00 0.00 71 1011.2
20260505032814 66 0 1.0 4.0 0.00 0.00 0.00 72 1011.2
20260505032314 66 0 1.0 4.0 0.00 0.00 0.00 70 1011.1
20260505032036 66 181 1.0 4.0 0.00 0.00 0.00 70 1011.1
20260505031314 66 0 1.0 3.0 0.00 0.00 0.00 70 1011.1
20260505030813 66 177 1.0 3.0 0.00 0.00 0.00 71 1011.1
20260505030313 66 191 1.0 3.0 0.00 0.00 0.00 68 1011.1
20260505025813 66 157 1.0 3.0 0.00 0.00 0.00 67 1011.1
20260505025313 67 170 1.0 3.0 0.00 0.00 0.00 67 1011.0
20260505024813 67 183 1.0 4.0 0.00 0.00 0.00 66 1010.9
20260505024314 66 134 1.0 4.0 0.00 0.00 0.00 65 1010.8
20260505023814 66 169 1.0 4.0 0.00 0.00 0.00 64 1010.8
20260505023314 65 0 1.0 3.0 0.00 0.00 0.00 63 1010.8
20260505023032 65 215 0.0 3.0 0.00 0.00 0.00 63 1010.8
20260505022315 64 188 0.0 3.0 0.00 0.00 0.00 64 1010.7
20260505021815 64 182 0.0 3.0 0.00 0.00 0.00 66 1010.5
20260505021314 64 0 0.0 3.0 0.00 0.00 0.00 69 1010.5
20260505020815 64 0 0.0 0.0 0.00 0.00 0.00 69 1010.6
20260505020533 64 0 0.0 0.0 0.00 0.00 0.00 65 1010.7
20260505015816 64 0 0.0 0.0 0.00 0.00 0.00 65 1010.7
20260505015312 64 0 0.0 0.0 0.00 0.00 0.00 66 1010.6
20260505014813 64 0 0.0 0.0 0.00 0.00 0.00 67 1010.6
20260505014313 64 0 0.0 0.0 0.00 0.00 0.00 67 1010.5
20260505013813 64 0 0.0 0.0 0.00 0.00 0.00 67 1010.4
20260505013313 64 0 0.0 0.0 0.00 0.00 0.00 68 1010.3
20260505012813 64 0 0.0 0.0 0.00 0.00 0.00 70 1010.2
20260505012313 64 0 0.0 0.0 0.00 0.00 0.00 70 1010.1
20260505011813 64 0 0.0 0.0 0.00 0.00 0.00 69 1010.2
20260505011313 64 0 0.0 0.0 0.00 0.00 0.00 65 1010.3
20260505010814 65 0 0.0 0.0 0.00 0.00 0.00 64 1010.3
20260505010536 65 0 0.0 0.0 0.00 0.00 0.00 64 1010.3
20260505005814 65 0 0.0 0.0 0.00 0.00 0.00 63 1010.2
20260505005310 66 0 0.0 1.0 0.00 0.00 0.00 62 1010.1
20260505004811 66 0 0.0 1.0 0.00 0.00 0.00 61 1010.1
20260505004311 67 215 0.0 1.0 0.00 0.00 0.00 60 1010.0
20260505004038 67 0 0.0 1.0 0.00 0.00 0.00 59 1010.0
20260505003310 68 0 0.0 1.0 0.00 0.00 0.00 59 1010.0
20260505002811 68 0 0.0 0.0 0.00 0.00 0.00 58 1010.0
20260505002312 69 0 0.0 2.0 0.00 0.00 0.00 58 1009.9
20260505001810 69 0 1.0 2.0 0.00 0.00 0.00 56 1009.9
20260505001307 70 325 1.0 2.0 0.00 0.00 0.00 55 1009.8
20260505000808 71 320 1.0 2.0 0.00 0.00 0.00 54 1009.7
20260505000524 71 177 1.0 2.0 0.00 0.00 0.00 53 1009.7
20260504235807 72 190 1.0 2.0 0.00 0.00 0.00 52 1009.7
20260504235307 73 185 0.0 2.0 0.00 0.00 0.00 52 1009.8
20260504234808 73 0 1.0 2.0 0.00 0.00 0.00 52 1009.8
20260504234308 74 192 1.0 2.0 0.00 0.00 0.00 47 1009.8
20260504233808 74 195 1.0 2.0 0.00 0.00 0.00 48 1009.8
20260504233308 75 203 2.0 3.0 0.00 0.00 0.00 46 1009.7
20260504232808 76 204 2.0 4.0 0.00 0.00 0.00 45 1009.7
20260504232308 76 195 2.0 4.0 0.00 0.00 0.00 44 1009.6
20260504231806 77 298 3.0 5.0 0.00 0.00 0.00 43 1009.6
20260504231302 77 162 3.0 5.0 0.00 0.00 0.00 42 1009.6
20260504230802 77 171 3.0 5.0 0.00 0.00 0.00 42 1009.5
20260504230303 76 161 3.0 5.0 0.00 0.00 0.00 42 1009.5
20260504230244 76 167 3.0 5.0 0.00 0.00 0.00 42 1009.5
20260504225304 76 325 3.0 5.0 0.00 0.00 0.00 43 1009.5
20260504224803 76 164 3.0 5.0 0.00 0.00 0.00 42 1009.6
20260504224303 77 323 3.0 6.0 0.00 0.00 0.00 42 1009.6
20260504224253 77 298 3.0 6.0 0.00 0.00 0.00 42 1009.6
20260504223303 77 314 4.0 6.0 0.00 0.00 0.00 41 1009.7
20260504222804 77 167 4.0 6.0 0.00 0.00 0.00 41 1009.8
20260504222305 77 190 4.0 6.0 0.00 0.00 0.00 40 1009.8
20260504221804 77 168 4.0 5.0 0.00 0.00 0.00 41 1009.8
20260504221300 78 172 3.0 5.0 0.00 0.00 0.00 39 1009.8
20260504221023 78 175 3.0 6.0 0.00 0.00 0.00 39 1009.8
20260504220527 79 173 3.0 6.0 0.00 0.00 0.00 38 1009.7
20260504215800 79 216 3.0 6.0 0.00 0.00 0.00 39 1009.8
20260504215259 79 172 3.0 5.0 0.00 0.00 0.00 39 1009.7
20260504215019 79 176 3.0 7.0 0.00 0.00 0.00 39 1009.8
20260504214257 79 182 4.0 7.0 0.00 0.00 0.00 39 1009.9
20260504213758 79 211 3.0 6.0 0.00 0.00 0.00 38 1009.9
20260504213258 79 182 3.0 9.0 0.00 0.00 0.00 37 1009.9
20260504212759 79 179 4.0 9.0 0.00 0.00 0.00 38 1009.9
20260504212258 78 170 4.0 8.0 0.00 0.00 0.00 39 1010.0
20260504211756 79 252 4.0 7.0 0.00 0.00 0.00 39 1010.0
20260504211256 79 162 4.0 8.0 0.00 0.00 0.00 38 1009.9
20260504210756 80 215 4.0 8.0 0.00 0.00 0.00 38 1010.0
20260504210256 80 179 4.0 9.0 0.00 0.00 0.00 38 1010.0
20260504205755 80 169 4.0 9.0 0.00 0.00 0.00 37 1010.0
20260504205742 80 187 4.0 11.0 0.00 0.00 0.00 38 1009.9
20260504205238 80 233 5.0 19.0 0.00 0.00 0.00 39 1010.0
20260504204256 81 312 4.0 19.0 0.00 0.00 0.00 38 1009.9
20260504204014 80 299 4.0 14.0 0.00 0.00 0.00 38 1009.9
20260504203256 80 211 4.0 7.0 0.00 0.00 0.00 38 1009.9
20260504202754 79 213 4.0 8.0 0.00 0.00 0.00 39 1010.0
20260504202252 79 218 4.0 8.0 0.00 0.00 0.00 40 1010.1
20260504201750 79 214 4.0 8.0 0.00 0.00 0.00 40 1010.1
20260504201251 80 210 4.0 9.0 0.00 0.00 0.00 37 1010.2
20260504201227 79 179 4.0 9.0 0.00 0.00 0.00 37 1010.2
20260504200251 79 339 3.0 6.0 0.00 0.00 0.00 36 1010.3
20260504195751 79 181 4.0 8.0 0.00 0.00 0.00 36 1010.4
20260504195508 79 199 4.0 8.0 0.00 0.00 0.00 36 1010.5
20260504194751 79 249 4.0 11.0 0.00 0.00 0.00 37 1010.5
20260504194731 78 187 4.0 11.0 0.00 0.00 0.00 37 1010.6
20260504193751 77 191 4.0 7.0 0.00 0.00 0.00 38 1010.8
20260504193251 77 201 4.0 7.0 0.00 0.00 0.00 36 1010.8
20260504192751 77 173 4.0 7.0 0.00 0.00 0.00 37 1011.0
20260504192249 77 228 4.0 8.0 0.00 0.00 0.00 37 1011.1
20260504191748 77 218 3.0 8.0 0.00 0.00 0.00 37 1011.1
20260504191248 76 245 4.0 8.0 0.00 0.00 0.00 39 1011.1
20260504190749 75 210 4.0 9.0 0.00 0.00 0.00 38 1011.3
20260504190249 75 249 4.0 9.0 0.00 0.00 0.00 38 1011.4
20260504185750 75 182 4.0 9.0 0.00 0.00 0.00 38 1011.5
20260504185249 75 297 4.0 8.0 0.00 0.00 0.00 39 1011.5
20260504184749 75 251 4.0 6.0 0.00 0.00 0.00 38 1011.6
20260504184249 75 252 4.0 9.0 0.00 0.00 0.00 38 1011.6
20260504184012 74 204 4.0 9.0 0.00 0.00 0.00 38 1011.8
20260504183726 74 338 3.0 7.0 0.00 0.00 0.00 37 1012.0
20260504182749 74 237 4.0 10.0 0.00 0.00 0.00 37 1012.0
20260504182250 74 207 4.0 14.0 0.00 0.00 0.00 38 1012.2
20260504181748 74 270 4.0 14.0 0.00 0.00 0.00 40 1012.0
20260504181247 75 177 4.0 10.0 0.00 0.00 0.00 41 1011.9
20260504180749 74 199 4.0 10.0 0.00 0.00 0.00 41 1011.9
20260504180248 74 224 3.0 7.0 0.00 0.00 0.00 41 1012.1
20260504175746 73 225 3.0 13.0 0.00 0.00 0.00 40 1012.1
20260504175511 74 263 3.0 13.0 0.00 0.00 0.00 40 1012.1
20260504174744 73 203 3.0 7.0 0.00 0.00 0.00 41 1012.2
20260504174244 73 197 4.0 9.0 0.00 0.00 0.00 40 1012.3
20260504173743 73 250 4.0 10.0 0.00 0.00 0.00 39 1012.3
20260504173244 74 184 3.0 10.0 0.00 0.00 0.00 40 1012.3
20260504173003 74 226 4.0 10.0 0.00 0.00 0.00 39 1012.4
20260504172239 73 226 4.0 10.0 0.00 0.01 0.00 40 1012.4
20260504171738 73 227 4.0 9.0 0.00 0.01 0.00 39 1012.5
20260504171501 73 231 3.0 9.0 0.00 0.01 0.00 39 1012.7
20260504170738 73 253 3.0 9.0 0.00 0.01 0.00 39 1012.8
20260504170238 73 204 4.0 9.0 0.00 0.01 0.00 40 1012.8
20260504160233 69 175 3.0 8.0 0.00 0.01 0.00 43 1013.5
20260504150728 66 256 3.0 8.0 0.00 0.02 0.00 55 1013.8
20260504150229 66 251 3.0 8.0 0.00 0.02 0.00 57 1013.7
20260504141227 62 200 3.0 8.0 0.00 0.02 0.00 64 1013.6
20260504140931 62 316 2.0 6.0 0.00 0.02 0.00 66 1013.6
20260504140816 62 196 2.0 7.0 0.00 0.02 0.00 64 1013.6
20260504130725 58 236 4.0 9.0 0.00 0.02 0.00 71 1014.0
20260504130225 57 189 4.0 9.0 0.00 0.02 0.00 73 1014.0
20260504120207 54 255 3.0 8.0 0.00 0.02 0.00 80 1014.1
20260504110647 50 8 1.0 2.0 0.00 0.02 0.00 88 1014.2
20260504110149 50 141 1.0 2.0 0.00 0.02 0.00 88 1014.2
20260504100605 50 195 1.0 2.0 0.00 0.02 0.00 86 1014.0
20260504100104 51 211 1.0 2.0 0.00 0.02 0.00 86 1014.1